Location: 476 Grange Obs.
(45.1421°N, 7.1417°E)
Time: 12:10:32
(UTC+01:00)

Envisat - Pass Details

Date: 29 October 2019
Orbit: 764 x 766 km, 98.1° (Epoch: 14 November)

Event Time Altitude Azimuth Distance (km) Brightness Sun altitude
Rises 17:55:19 0° 148° (SSE) 3,221 6.0 -6.1°
Reaches altitude 10° 17:57:41 10° 142° (SE) 2,298 5.2 -6.5°
Maximum altitude 18:02:31 47° 70° (ENE) 1,015 3.3 -7.3°
Drops below altitude 10° 18:07:22 10° 358° (N) 2,313 5.4 -8.2°
Sets 18:09:45 0° 353° (N) 3,243 6.2 -8.6°
